Date String (YYYY-MM-DD hh:mm:ss) UTC,Instrument flags,Ambient pressure (hPa),Sample flow (lpm),Bypass flow (lpm),Sample temperature (°C),Ambient temperature (°C),ASC tube jacket temperature (°C),LED temperature (°C),Box temperature (°C),Sample RH (%),Span deviation,Mass concentration (μg/m³),Mass concentration (μg/m³),Mass concentration (μg/m³)
DateTimeUTC,F1_M11,P_M11,Q1_M11,Q2_M11,T1_M11,T2_M11,T3_M11,T4_M11,T5_M11,U1_M11,ZSPAN_M11,X0_M11,X2_M11,X1_M11
2023-02-22 07:00:00,,0805.0,5.01,0.00,22.1,22.1,00.0,30.7,24.1,21.8,0000.0,0005.44,0003.25,0002.68
2023-02-22 07:01:00,,0804.9,5.01,0.00,22.1,21.7,00.0,30.7,24.0,21.8,0000.0,0005.43,0003.25,0002.67
2023-02-22 07:02:00,,0804.9,5.00,0.00,22.1,21.5,00.0,30.7,24.0,21.8,0000.0,0005.36,0003.24,0002.67
2023-02-22 07:03:00,,0804.9,5.00,0.00,22.1,21.3,00.0,30.7,24.0,21.8,0000.0,0005.27,0003.24,0002.68
2023-02-22 07:04:00,,0805.0,4.99,0.00,22.1,21.1,00.0,30.8,24.0,21.8,0000.0,0005.08,0003.24,0002.68
2023-02-22 07:05:00,,0804.9,5.02,0.00,22.2,20.9,00.0,30.8,24.0,21.7,0000.0,0004.84,0003.23,0002.70
2023-02-22 07:06:00,,0804.9,5.00,0.00,22.2,20.8,00.0,30.8,24.0,21.7,0000.0,0004.78,0003.20,0002.71
2023-02-22 07:07:00,,0804.9,5.00,0.00,22.1,20.7,00.0,30.8,24.0,21.7,0000.0,0004.85,0003.21,0002.71
2023-02-22 07:08:00,,0804.9,5.00,0.00,22.1,20.7,00.0,30.8,23.9,21.7,0000.0,0004.88,0003.23,0002.72
2023-02-22 07:09:00,,0804.9,5.00,0.00,22.1,20.6,00.0,30.8,23.9,21.8,0000.0,0004.93,0003.22,0002.71
2023-02-22 07:10:00,,0804.9,4.99,0.00,22.1,20.5,00.0,30.8,23.9,21.9,0000.0,0004.90,0003.21,0002.70
2023-02-22 07:11:00,,0804.9,5.00,0.00,22.1,20.5,00.0,30.8,23.9,21.9,0000.0,0004.85,0003.19,0002.68
2023-02-22 07:12:00,,0804.9,5.01,0.00,22.1,20.4,00.0,30.8,23.9,21.8,0000.0,0004.74,0003.17,0002.66
2023-02-22 07:13:00,,0804.9,5.00,0.00,22.1,20.4,00.0,30.8,23.9,21.8,0000.0,0004.54,0003.13,0002.63
2023-02-22 07:14:00,,0804.9,5.01,0.00,22.1,20.4,00.0,30.8,23.9,21.8,0000.0,0004.41,0003.07,0002.60
2023-02-22 07:15:00,,0804.9,5.00,0.00,22.1,20.3,00.0,30.8,23.8,21.8,0000.0,0004.31,0003.00,0002.56
2023-02-22 07:16:00,,0804.9,5.00,0.00,22.1,20.3,00.0,30.8,23.8,21.9,0000.0,0004.24,0002.94,0002.52
2023-02-22 07:17:00,,0804.8,5.01,0.00,22.1,20.3,00.0,30.8,23.8,21.9,0000.0,0003.99,0002.85,0002.47
2023-02-22 07:18:00,,0804.8,4.99,0.00,22.0,20.3,00.0,30.8,23.8,21.9,0000.0,0003.92,0002.79,0002.41
2023-02-22 07:19:00,,0804.8,5.00,0.00,22.0,20.3,00.0,30.8,23.8,21.9,0000.0,0003.89,0002.74,0002.37
2023-02-22 07:20:00,,0804.8,5.00,0.00,22.0,20.2,00.0,30.8,23.8,21.9,0000.0,0003.71,0002.68,0002.33
2023-02-22 07:21:00,,0804.7,5.00,0.00,22.0,20.2,00.0,30.8,23.8,21.9,0000.0,0003.59,0002.61,0002.28
2023-02-22 07:22:00,,0804.7,5.00,0.00,22.0,20.2,00.0,30.8,23.8,21.9,0000.0,0003.50,0002.55,0002.24
2023-02-22 07:23:00,,0804.8,5.00,0.00,22.0,20.2,00.0,30.8,23.8,21.9,0000.0,0003.30,0002.46,0002.21
2023-02-22 07:24:00,,0804.8,5.00,0.00,22.0,20.2,00.0,30.8,23.8,21.9,0000.0,0003.20,0002.41,0002.17
2023-02-22 07:25:00,,0804.8,5.01,0.00,22.0,20.2,00.0,30.8,23.8,22.0,0000.0,0003.17,0002.38,0002.15
2023-02-22 07:26:00,,0804.7,5.00,0.00,22.0,20.2,00.0,30.8,23.8,22.0,0000.0,0003.13,0002.34,0002.12
2023-02-22 07:27:00,,0804.7,4.98,0.00,22.0,20.2,00.0,30.8,23.7,22.0,0000.0,0003.04,0002.30,0002.09
2023-02-22 07:28:00,,0804.8,4.99,0.00,22.0,20.2,00.0,30.8,23.7,22.0,0000.0,0003.00,0002.28,0002.06
2023-02-22 07:29:00,,0804.8,5.00,0.00,22.0,20.2,00.0,30.7,23.7,22.0,0000.0,0002.84,0002.22,0002.04
2023-02-22 07:30:00,,0804.9,5.02,0.00,22.0,20.2,00.0,30.7,23.7,21.9,0000.0,0002.67,0002.15,0002.01
2023-02-22 07:31:00,,0804.9,4.99,0.00,22.0,20.3,00.0,30.7,23.7,21.9,0000.0,0002.57,0002.10,0001.98
2023-02-22 07:32:00,,0805.0,4.99,0.00,21.9,20.2,00.0,30.7,23.7,21.9,0000.0,0002.51,0002.06,0001.94
2023-02-22 07:33:00,,0805.0,4.99,0.00,21.9,20.2,00.0,30.7,23.7,20.9,0000.0,0002.52,0002.05,0001.93
2023-02-22 07:34:00,,0805.0,5.00,0.00,21.9,20.3,00.0,30.7,23.7,20.0,0000.0,0002.62,0002.09,0001.93
2023-02-22 07:35:00,,0805.0,4.99,0.00,22.0,21.1,00.0,30.7,23.9,19.1,0000.0,0002.74,0002.14,0001.95
2023-02-22 07:36:00,,0805.0,5.00,0.00,22.1,22.2,00.0,30.7,24.1,18.4,0000.0,0002.88,0002.22,0001.98
2023-02-22 07:37:00,,0805.0,4.98,0.00,22.2,22.8,00.0,30.7,24.3,17.6,0000.0,0002.93,0002.27,0002.02
2023-02-22 07:38:00,,0805.0,5.01,0.00,22.2,22.4,00.0,30.8,24.3,17.0,0000.0,0002.99,0002.32,0002.08
2023-02-22 07:39:00,,0805.0,4.99,0.00,22.3,21.9,00.0,30.8,24.2,16.5,0000.0,0003.08,0002.39,0002.15
2023-02-22 07:40:00,,0805.0,5.01,0.00,22.2,21.4,00.0,30.9,24.1,16.2,0000.0,0003.26,0002.51,0002.23
2023-02-22 07:41:00,,0805.0,5.01,0.00,22.2,21.1,00.0,30.9,24.0,15.9,0000.0,0003.40,0002.61,0002.31
2023-02-22 07:42:00,,0805.0,5.00,0.00,22.2,20.9,00.0,30.9,24.0,15.7,0000.0,0003.50,0002.72,0002.39
2023-02-22 07:43:00,,0805.2,5.00,0.00,22.2,20.9,00.0,30.9,24.0,15.5,0000.0,0003.68,0002.87,0002.51
2023-02-22 07:44:00,,0805.2,5.00,0.00,22.3,21.8,00.0,30.9,24.2,15.3,0000.0,0005.10,0003.01,0002.60
2023-02-22 07:45:00,,0805.2,5.02,0.00,22.4,22.8,00.0,30.9,24.4,15.0,0000.0,0005.12,0003.04,0002.64
2023-02-22 07:46:00,,0805.2,5.02,0.00,22.5,23.1,00.0,31.0,24.6,14.6,0000.0,0005.08,0003.07,0002.69
2023-02-22 07:47:00,,0805.2,5.00,0.00,22.5,22.6,00.0,31.0,24.5,14.4,0000.0,0005.45,0003.07,0002.73
2023-02-22 07:48:00,,0805.2,5.01,0.00,22.5,22.2,00.0,31.1,24.4,14.2,0000.0,0006.62,0003.12,0002.76
2023-02-22 07:49:00,,0805.1,5.00,0.00,22.5,21.8,00.0,31.1,24.3,14.1,0000.0,0006.65,0003.14,0002.78
2023-02-22 07:50:00,,0805.1,5.00,0.00,22.5,21.4,00.0,31.1,24.2,13.9,0000.0,0006.66,0003.15,0002.79
2023-02-22 07:51:00,,0805.2,5.02,0.00,22.4,21.2,00.0,31.1,24.2,13.8,0000.0,0006.63,0003.14,0002.79
2023-02-22 07:52:00,,0805.2,5.00,0.00,22.4,21.1,00.0,31.1,24.2,13.7,0000.0,0006.73,0003.14,0002.79
2023-02-22 07:53:00,,0805.2,5.01,0.00,22.5,22.0,00.0,31.1,24.4,13.5,0000.0,0007.61,0003.15,0002.81
2023-02-22 07:54:00,,0805.3,4.99,0.00,22.6,23.0,00.0,31.1,24.7,13.4,0000.0,0007.62,0003.15,0002.80
2023-02-22 07:55:00,,0805.2,5.01,0.00,22.7,23.2,00.0,31.2,24.7,13.3,0000.0,0006.80,0003.14,0002.79
2023-02-22 07:56:00,,0805.2,4.99,0.00,22.7,22.7,00.0,31.2,24.7,13.2,0000.0,0006.70,0003.16,0002.79
2023-02-22 07:57:00,,0805.3,5.00,0.00,22.7,22.2,00.0,31.3,24.5,13.1,0000.0,0006.93,0003.21,0002.81
2023-02-22 07:58:00,,0805.2,5.00,0.00,22.7,21.8,00.0,31.3,24.4,13.1,0000.0,0006.46,0003.21,0002.83
2023-02-22 07:59:00,,0805.2,5.00,0.00,22.6,21.4,00.0,31.3,24.3,13.1,0000.0,0005.37,0003.19,0002.84
